Year,Month,Day,Hour,Minute,Value (Times are PST for temperature in C)
2017,05,23,00,00,18.10
2017,05,23,00,01,18.10
2017,05,23,00,02,18.10
2017,05,23,00,03,18.10
2017,05,23,00,04,18.10
2017,05,23,00,05,18.10
2017,05,23,00,06,18.10
2017,05,23,00,07,18.10
2017,05,23,00,08,18.10
2017,05,23,00,09,18.00
2017,05,23,00,10,18.00
2017,05,23,00,11,17.90
2017,05,23,00,12,17.90
2017,05,23,00,13,17.80
2017,05,23,00,14,17.80
2017,05,23,00,15,17.80
2017,05,23,00,16,17.70
2017,05,23,00,17,17.70
2017,05,23,00,18,17.70
2017,05,23,00,19,17.60
2017,05,23,00,20,17.60
2017,05,23,00,21,17.50
2017,05,23,00,22,17.50
2017,05,23,00,23,17.40
2017,05,23,00,24,17.40
2017,05,23,00,25,17.40
2017,05,23,00,26,17.40
2017,05,23,00,27,17.40
2017,05,23,00,28,17.30
2017,05,23,00,29,17.30
2017,05,23,00,30,17.20
2017,05,23,00,31,17.20
2017,05,23,00,32,17.20
2017,05,23,00,33,17.20
2017,05,23,00,34,17.20
2017,05,23,00,35,17.20
2017,05,23,00,36,17.20
2017,05,23,00,37,17.20
2017,05,23,00,38,17.20
2017,05,23,00,39,17.20
2017,05,23,00,40,17.20
2017,05,23,00,41,17.20
2017,05,23,00,42,17.20
2017,05,23,00,43,17.20
2017,05,23,00,44,17.20
2017,05,23,00,45,17.20
2017,05,23,00,46,17.20
2017,05,23,00,47,17.20
2017,05,23,00,48,17.20
2017,05,23,00,49,17.10
2017,05,23,00,50,17.10
2017,05,23,00,51,17.10
2017,05,23,00,52,17.00
2017,05,23,00,53,17.00
2017,05,23,00,54,17.00
2017,05,23,00,55,17.00
2017,05,23,00,56,17.00
2017,05,23,00,57,17.00
2017,05,23,00,58,17.00
2017,05,23,00,59,17.00
2017,05,23,01,00,17.00
2017,05,23,01,01,17.00
2017,05,23,01,02,17.00
2017,05,23,01,03,17.00
2017,05,23,01,04,17.10
2017,05,23,01,05,17.10
2017,05,23,01,06,17.10
2017,05,23,01,07,17.10
2017,05,23,01,08,17.10
2017,05,23,01,09,17.10
2017,05,23,01,10,17.10
2017,05,23,01,11,17.00
2017,05,23,01,12,17.00
2017,05,23,01,13,17.00
2017,05,23,01,14,17.00
2017,05,23,01,15,16.90
2017,05,23,01,16,16.90
2017,05,23,01,17,16.90
2017,05,23,01,18,16.80
2017,05,23,01,19,16.80
2017,05,23,01,20,16.80
2017,05,23,01,21,16.70
2017,05,23,01,22,16.70
2017,05,23,01,23,16.70
2017,05,23,01,24,16.60
2017,05,23,01,25,16.60
2017,05,23,01,26,16.60
2017,05,23,01,27,16.50
2017,05,23,01,28,16.50
2017,05,23,01,29,16.40
2017,05,23,01,30,16.40
2017,05,23,01,31,16.40
2017,05,23,01,32,16.30
2017,05,23,01,33,16.30
2017,05,23,01,34,16.30
2017,05,23,01,35,16.30
2017,05,23,01,36,16.30
2017,05,23,01,37,16.30
2017,05,23,01,38,16.30
2017,05,23,01,39,16.40
2017,05,23,01,40,16.40
2017,05,23,01,41,16.40
2017,05,23,01,42,16.40
2017,05,23,01,43,16.40
2017,05,23,01,44,16.40
2017,05,23,01,45,16.40
2017,05,23,01,46,16.40
2017,05,23,01,47,16.40
2017,05,23,01,48,16.40
2017,05,23,01,49,16.40
2017,05,23,01,50,16.40
2017,05,23,01,51,16.30
2017,05,23,01,52,16.30
2017,05,23,01,53,16.30
2017,05,23,01,54,16.30
2017,05,23,01,55,16.30
2017,05,23,01,56,16.30
2017,05,23,01,57,16.30
2017,05,23,01,58,16.30
2017,05,23,01,59,16.30
2017,05,23,02,00,16.30
2017,05,23,02,01,16.20
2017,05,23,02,02,16.20
2017,05,23,02,03,16.20
2017,05,23,02,04,16.20
2017,05,23,02,05,16.20
2017,05,23,02,06,16.20
2017,05,23,02,07,16.20
2017,05,23,02,08,16.10
2017,05,23,02,09,16.10
2017,05,23,02,10,16.10
2017,05,23,02,11,16.10
2017,05,23,02,12,16.10
2017,05,23,02,13,16.10
2017,05,23,02,14,16.00
2017,05,23,02,15,16.00
2017,05,23,02,16,16.00
2017,05,23,02,17,16.00
2017,05,23,02,18,15.90
2017,05,23,02,19,15.90
2017,05,23,02,20,15.80
2017,05,23,02,21,15.80
2017,05,23,02,22,15.70
2017,05,23,02,23,15.60
2017,05,23,02,24,15.60
2017,05,23,02,25,15.50
2017,05,23,02,26,15.50
2017,05,23,02,27,15.40
2017,05,23,02,28,15.40
2017,05,23,02,29,15.30
2017,05,23,02,30,15.30
2017,05,23,02,31,15.30
2017,05,23,02,32,15.30
2017,05,23,02,33,15.20
2017,05,23,02,34,15.20
2017,05,23,02,35,15.20
2017,05,23,02,36,15.10
2017,05,23,02,37,15.10
2017,05,23,02,38,15.10
2017,05,23,02,39,15.00
2017,05,23,02,40,15.00
2017,05,23,02,41,14.90
2017,05,23,02,42,14.90
2017,05,23,02,43,14.80
2017,05,23,02,44,14.80
2017,05,23,02,45,14.80
2017,05,23,02,46,14.70
2017,05,23,02,47,14.70
2017,05,23,02,48,14.70
2017,05,23,02,49,14.60
2017,05,23,02,50,14.60
2017,05,23,02,51,14.50
2017,05,23,02,52,14.50
2017,05,23,02,53,14.40
2017,05,23,02,54,14.40
2017,05,23,02,55,14.40
2017,05,23,02,56,14.30
2017,05,23,02,57,14.30
2017,05,23,02,58,14.30
2017,05,23,02,59,14.20
2017,05,23,03,00,14.20
2017,05,23,03,01,14.20
2017,05,23,03,02,14.20
2017,05,23,03,03,14.20
2017,05,23,03,04,14.20
2017,05,23,03,05,14.20
2017,05,23,03,06,14.20
2017,05,23,03,07,14.20
2017,05,23,03,08,14.30
2017,05,23,03,09,14.30
2017,05,23,03,10,14.30
2017,05,23,03,11,14.30
2017,05,23,03,12,14.30
2017,05,23,03,13,14.30
2017,05,23,03,14,14.30
2017,05,23,03,15,14.30
2017,05,23,03,16,14.30
2017,05,23,03,17,14.30
2017,05,23,03,18,14.30
2017,05,23,03,19,14.30
2017,05,23,03,20,14.30
2017,05,23,03,21,14.30
2017,05,23,03,22,14.30
2017,05,23,03,23,14.30
2017,05,23,03,24,14.30
2017,05,23,03,25,14.20
2017,05,23,03,26,14.20
2017,05,23,03,27,14.10
2017,05,23,03,28,14.00
2017,05,23,03,29,13.90
2017,05,23,03,30,13.80
2017,05,23,03,31,13.80
2017,05,23,03,32,13.80
2017,05,23,03,33,13.80
2017,05,23,03,34,13.80
2017,05,23,03,35,13.80
2017,05,23,03,36,13.90
2017,05,23,03,37,13.90
2017,05,23,03,38,13.90
2017,05,23,03,39,13.90
2017,05,23,03,40,13.90
2017,05,23,03,41,13.90
2017,05,23,03,42,13.80
2017,05,23,03,43,13.80
2017,05,23,03,44,13.80
2017,05,23,03,45,13.70
2017,05,23,03,46,13.70
2017,05,23,03,47,13.70
2017,05,23,03,48,13.70
2017,05,23,03,49,13.70
2017,05,23,03,50,13.70
2017,05,23,03,51,13.60
2017,05,23,03,52,13.60
2017,05,23,03,53,13.60
2017,05,23,03,54,13.50
2017,05,23,03,55,13.50
2017,05,23,03,56,13.50
2017,05,23,03,57,13.50
2017,05,23,03,58,13.60
2017,05,23,03,59,13.60
2017,05,23,04,00,13.70
2017,05,23,04,01,13.70
2017,05,23,04,02,13.70
2017,05,23,04,03,13.80
2017,05,23,04,04,13.80
2017,05,23,04,05,13.80
2017,05,23,04,06,13.80
2017,05,23,04,07,13.80
2017,05,23,04,08,13.70
2017,05,23,04,09,13.70
2017,05,23,04,10,13.70
2017,05,23,04,11,13.70
2017,05,23,04,12,13.60
2017,05,23,04,13,13.60
2017,05,23,04,14,13.50
2017,05,23,04,15,13.50
2017,05,23,04,16,13.40
2017,05,23,04,17,13.40
2017,05,23,04,18,13.30
2017,05,23,04,19,13.30
2017,05,23,04,20,13.20
2017,05,23,04,21,13.20
2017,05,23,04,22,13.20
2017,05,23,04,23,13.10
2017,05,23,04,24,13.10
2017,05,23,04,25,13.10
2017,05,23,04,26,13.10
2017,05,23,04,27,13.10
2017,05,23,04,28,13.10
2017,05,23,04,29,13.10
2017,05,23,04,30,13.10
2017,05,23,04,31,13.10
2017,05,23,04,32,13.10
2017,05,23,04,33,13.10
2017,05,23,04,34,13.10
2017,05,23,04,35,13.10
2017,05,23,04,36,13.10
2017,05,23,04,37,13.10
2017,05,23,04,38,13.10
2017,05,23,04,39,13.10
2017,05,23,04,40,13.00
2017,05,23,04,41,13.00
2017,05,23,04,42,13.00
2017,05,23,04,43,12.90
2017,05,23,04,44,12.90
2017,05,23,04,45,12.90
2017,05,23,04,46,12.90
2017,05,23,04,47,12.90
2017,05,23,04,48,12.80
2017,05,23,04,49,12.90
2017,05,23,04,50,12.90
2017,05,23,04,51,13.00
2017,05,23,04,52,13.00
2017,05,23,04,53,13.10
2017,05,23,04,54,13.20
2017,05,23,04,55,13.30
2017,05,23,04,56,13.30
2017,05,23,04,57,13.30
2017,05,23,04,58,13.30
2017,05,23,04,59,13.40
2017,05,23,05,00,13.40
2017,05,23,05,01,13.40
2017,05,23,05,02,13.40
2017,05,23,05,03,13.40
2017,05,23,05,04,13.40
2017,05,23,05,05,13.40
2017,05,23,05,06,13.40
2017,05,23,05,07,13.50
2017,05,23,05,08,13.60
2017,05,23,05,09,13.60
2017,05,23,05,10,13.60
2017,05,23,05,11,13.60
2017,05,23,05,12,13.70
2017,05,23,05,13,13.60
2017,05,23,05,14,13.60
2017,05,23,05,15,13.60
2017,05,23,05,16,13.60
2017,05,23,05,17,13.60
2017,05,23,05,18,13.60
2017,05,23,05,19,13.50
2017,05,23,05,20,13.50
2017,05,23,05,21,13.40
2017,05,23,05,22,13.40
2017,05,23,05,23,13.40
2017,05,23,05,24,13.40
2017,05,23,05,25,13.40
2017,05,23,05,26,13.40
2017,05,23,05,27,13.50
2017,05,23,05,28,13.50
2017,05,23,05,29,13.50
2017,05,23,05,30,13.50
2017,05,23,05,31,13.60
2017,05,23,05,32,13.60
2017,05,23,05,33,13.60
2017,05,23,05,34,13.70
2017,05,23,05,35,13.70
2017,05,23,05,36,13.70
2017,05,23,05,37,13.70
2017,05,23,05,38,13.70
2017,05,23,05,39,13.70
2017,05,23,05,40,13.60
2017,05,23,05,41,13.60
2017,05,23,05,42,13.60
2017,05,23,05,43,13.60
2017,05,23,05,44,13.60
2017,05,23,05,45,13.60
2017,05,23,05,46,13.50
2017,05,23,05,47,13.50
2017,05,23,05,48,13.50
2017,05,23,05,49,13.50
2017,05,23,05,50,13.40
2017,05,23,05,51,13.40
2017,05,23,05,52,13.40
2017,05,23,05,53,13.40
2017,05,23,05,54,13.50
2017,05,23,05,55,13.50
2017,05,23,05,56,13.50
2017,05,23,05,57,13.50
2017,05,23,05,58,13.50
2017,05,23,05,59,13.50
2017,05,23,06,00,13.60
2017,05,23,06,01,13.60
2017,05,23,06,02,13.60
2017,05,23,06,03,13.60
2017,05,23,06,04,13.70
2017,05,23,06,05,13.70
2017,05,23,06,06,13.70
2017,05,23,06,07,13.80
2017,05,23,06,08,13.80
2017,05,23,06,09,13.80
2017,05,23,06,10,13.90
2017,05,23,06,11,13.90
2017,05,23,06,12,14.00
2017,05,23,06,13,14.00
2017,05,23,06,14,14.10
2017,05,23,06,15,14.10
2017,05,23,06,16,14.10
2017,05,23,06,17,14.10
2017,05,23,06,18,14.10
2017,05,23,06,19,14.10
2017,05,23,06,20,14.10
2017,05,23,06,21,14.20
2017,05,23,06,22,14.10
2017,05,23,06,23,14.10
2017,05,23,06,24,14.10
2017,05,23,06,25,14.10
2017,05,23,06,26,14.10
2017,05,23,06,27,14.10
2017,05,23,06,28,14.10
2017,05,23,06,29,14.10
2017,05,23,06,30,14.10
2017,05,23,06,31,14.10
2017,05,23,06,32,14.10
2017,05,23,06,33,14.20
2017,05,23,06,34,14.20
2017,05,23,06,35,14.20
2017,05,23,06,36,14.20
2017,05,23,06,37,14.30
2017,05,23,06,38,14.30
2017,05,23,06,39,14.30
2017,05,23,06,40,14.40
2017,05,23,06,41,14.40
2017,05,23,06,42,14.40
2017,05,23,06,43,14.40
2017,05,23,06,44,14.40
2017,05,23,06,45,14.50
2017,05,23,06,46,14.50
2017,05,23,06,47,14.60
2017,05,23,06,48,14.60
2017,05,23,06,49,14.60
2017,05,23,06,50,14.70
2017,05,23,06,51,14.70
2017,05,23,06,52,14.80
2017,05,23,06,53,14.80
2017,05,23,06,54,14.90
2017,05,23,06,55,15.00
2017,05,23,06,56,15.00
2017,05,23,06,57,15.10
2017,05,23,06,58,15.20
2017,05,23,06,59,15.30
2017,05,23,07,00,15.30
2017,05,23,07,01,15.40
2017,05,23,07,02,15.40
2017,05,23,07,03,15.40
2017,05,23,07,04,15.50
2017,05,23,07,05,15.50
2017,05,23,07,06,15.60
2017,05,23,07,07,15.60
2017,05,23,07,08,15.60
2017,05,23,07,09,15.70
2017,05,23,07,10,15.70
2017,05,23,07,11,15.70
2017,05,23,07,12,15.70
2017,05,23,07,13,15.80
2017,05,23,07,14,15.80
2017,05,23,07,15,15.90
2017,05,23,07,16,16.00
2017,05,23,07,17,16.10
2017,05,23,07,18,16.10
2017,05,23,07,19,16.20
2017,05,23,07,20,16.20
2017,05,23,07,21,16.20
2017,05,23,07,22,16.20
2017,05,23,07,23,16.20
2017,05,23,07,24,16.20
2017,05,23,07,25,16.20
2017,05,23,07,26,16.20
2017,05,23,07,27,16.20
2017,05,23,07,28,16.20
2017,05,23,07,29,16.20
2017,05,23,07,30,16.20
2017,05,23,07,31,16.20
2017,05,23,07,32,16.20
2017,05,23,07,33,16.20
2017,05,23,07,34,16.20
2017,05,23,07,35,16.20
2017,05,23,07,36,16.20
2017,05,23,07,37,16.20
2017,05,23,07,38,16.20
2017,05,23,07,39,16.20
2017,05,23,07,40,16.30
2017,05,23,07,41,16.30
2017,05,23,07,42,16.40
2017,05,23,07,43,16.50
2017,05,23,07,44,16.50
2017,05,23,07,45,16.60
2017,05,23,07,46,16.70
2017,05,23,07,47,16.70
2017,05,23,07,48,16.80
2017,05,23,07,49,17.00
2017,05,23,07,50,17.10
2017,05,23,07,51,17.20
2017,05,23,07,52,17.30
2017,05,23,07,53,17.40
2017,05,23,07,54,17.50
2017,05,23,07,55,17.60
2017,05,23,07,56,17.60
2017,05,23,07,57,17.60
2017,05,23,07,58,17.60
2017,05,23,07,59,17.60
2017,05,23,08,00,17.60
2017,05,23,08,01,17.50
2017,05,23,08,02,17.40
2017,05,23,08,03,17.30
2017,05,23,08,04,17.30
2017,05,23,08,05,17.20
2017,05,23,08,06,17.10
2017,05,23,08,07,17.10
2017,05,23,08,08,17.10
2017,05,23,08,09,17.10
2017,05,23,08,10,17.10
2017,05,23,08,11,17.10
2017,05,23,08,12,17.10
2017,05,23,08,13,17.10
2017,05,23,08,14,17.10
2017,05,23,08,15,17.30
2017,05,23,08,16,17.30
2017,05,23,08,17,17.50
2017,05,23,08,18,17.60
2017,05,23,08,19,17.70
2017,05,23,08,20,17.80
2017,05,23,08,21,17.90
2017,05,23,08,22,18.00
2017,05,23,08,23,18.10
2017,05,23,08,24,18.20
2017,05,23,08,25,18.20
2017,05,23,08,26,18.30
2017,05,23,08,27,18.30
2017,05,23,08,28,18.40
2017,05,23,08,29,18.40
2017,05,23,08,30,18.50
2017,05,23,08,31,18.50
2017,05,23,08,32,18.60
2017,05,23,08,33,18.60
2017,05,23,08,34,18.70
2017,05,23,08,35,18.70
2017,05,23,08,36,18.70
2017,05,23,08,37,18.60
2017,05,23,08,38,18.60
2017,05,23,08,39,18.60
2017,05,23,08,40,18.50
2017,05,23,08,41,18.40
2017,05,23,08,42,18.30
2017,05,23,08,43,18.30
2017,05,23,08,44,18.30
2017,05,23,08,45,18.20
2017,05,23,08,46,18.20
2017,05,23,08,47,18.20
2017,05,23,08,48,18.30
2017,05,23,08,49,18.30
2017,05,23,08,50,18.30
2017,05,23,08,51,18.40
2017,05,23,08,52,18.50
2017,05,23,08,53,18.60
2017,05,23,08,54,18.60
2017,05,23,08,55,18.70
2017,05,23,08,56,18.70
2017,05,23,08,57,18.70
2017,05,23,08,58,18.70
2017,05,23,08,59,18.70
2017,05,23,09,00,18.70
2017,05,23,09,01,18.60
2017,05,23,09,02,18.60
2017,05,23,09,03,18.60
2017,05,23,09,04,18.60
2017,05,23,09,05,18.60
2017,05,23,09,06,18.60
2017,05,23,09,07,18.60
2017,05,23,09,08,18.60
2017,05,23,09,09,18.60
2017,05,23,09,10,18.60
2017,05,23,09,11,18.70
2017,05,23,09,12,18.60
2017,05,23,09,13,18.60
2017,05,23,09,14,18.50
2017,05,23,09,15,18.50
2017,05,23,09,16,18.40
2017,05,23,09,17,18.40
2017,05,23,09,18,18.40
2017,05,23,09,19,18.40
2017,05,23,09,20,18.40
2017,05,23,09,21,18.30
2017,05,23,09,22,18.30
2017,05,23,09,23,18.20
2017,05,23,09,24,18.20
2017,05,23,09,25,18.10
2017,05,23,09,26,17.90
2017,05,23,09,27,17.70
2017,05,23,09,28,17.50
2017,05,23,09,29,17.50
2017,05,23,09,30,17.40
2017,05,23,09,31,17.30
2017,05,23,09,32,17.30
2017,05,23,09,33,17.20
2017,05,23,09,34,17.20
2017,05,23,09,35,17.20
2017,05,23,09,36,17.20
2017,05,23,09,37,17.20
2017,05,23,09,38,17.20
2017,05,23,09,39,17.20
2017,05,23,09,40,17.20
2017,05,23,09,41,17.30
2017,05,23,09,42,17.40
2017,05,23,09,43,17.50
2017,05,23,09,44,17.50
2017,05,23,09,45,17.60
2017,05,23,09,46,17.80
2017,05,23,09,47,17.80
2017,05,23,09,48,17.90
2017,05,23,09,49,18.00
2017,05,23,09,50,18.10
2017,05,23,09,51,18.20
2017,05,23,09,52,18.30
2017,05,23,09,53,18.30
2017,05,23,09,54,18.40
2017,05,23,09,55,18.50
2017,05,23,09,56,18.60
2017,05,23,09,57,18.80
2017,05,23,09,58,18.90
2017,05,23,09,59,19.00
2017,05,23,10,00,19.10
2017,05,23,10,01,19.20
2017,05,23,10,02,19.30
2017,05,23,10,03,19.40
2017,05,23,10,04,19.40
2017,05,23,10,05,19.40
2017,05,23,10,06,19.40
2017,05,23,10,07,19.40
2017,05,23,10,08,19.40
2017,05,23,10,09,19.30
2017,05,23,10,10,19.20
2017,05,23,10,11,19.00
2017,05,23,10,12,18.90
2017,05,23,10,13,18.90
2017,05,23,10,14,19.00
2017,05,23,10,15,19.00
2017,05,23,10,16,19.00
2017,05,23,10,17,18.90
2017,05,23,10,18,18.90
2017,05,23,10,19,18.90
2017,05,23,10,20,18.80
2017,05,23,10,21,18.80
2017,05,23,10,22,18.90
2017,05,23,10,23,18.90
2017,05,23,10,24,18.90
2017,05,23,10,25,18.90
2017,05,23,10,26,18.90
2017,05,23,10,27,19.00
2017,05,23,10,28,19.00
2017,05,23,10,29,19.10
2017,05,23,10,30,19.00
2017,05,23,10,31,19.00
2017,05,23,10,32,19.00
2017,05,23,10,33,19.00
2017,05,23,10,34,19.00
2017,05,23,10,35,19.10
2017,05,23,10,36,19.10
2017,05,23,10,37,19.10
2017,05,23,10,38,19.10
2017,05,23,10,39,19.00
2017,05,23,10,40,18.90
2017,05,23,10,41,18.90
2017,05,23,10,42,19.00
2017,05,23,10,43,19.00
2017,05,23,10,44,19.00
2017,05,23,10,45,18.90
2017,05,23,10,46,18.80
2017,05,23,10,47,18.80
2017,05,23,10,48,18.80
2017,05,23,10,49,18.80
2017,05,23,10,50,18.70
2017,05,23,10,51,18.70
2017,05,23,10,52,18.60
2017,05,23,10,53,18.50
2017,05,23,10,54,18.50
2017,05,23,10,55,18.40
2017,05,23,10,56,18.40
2017,05,23,10,57,18.40
2017,05,23,10,58,18.40
2017,05,23,10,59,18.40
2017,05,23,11,00,18.40
2017,05,23,11,01,18.50
2017,05,23,11,02,18.50
2017,05,23,11,03,18.50
2017,05,23,11,04,18.50
2017,05,23,11,05,18.40
2017,05,23,11,06,18.40
2017,05,23,11,07,18.40
2017,05,23,11,08,18.40
2017,05,23,11,09,18.40
2017,05,23,11,10,18.40
2017,05,23,11,11,18.40
2017,05,23,11,12,18.40
2017,05,23,11,13,18.40
2017,05,23,11,14,18.40
2017,05,23,11,15,18.50
2017,05,23,11,16,18.50
2017,05,23,11,17,18.60
2017,05,23,11,18,18.60
2017,05,23,11,19,18.60
2017,05,23,11,20,18.60
2017,05,23,11,21,18.60
2017,05,23,11,22,18.60
2017,05,23,11,23,18.60
2017,05,23,11,24,18.60
2017,05,23,11,25,18.60
2017,05,23,11,26,18.60
2017,05,23,11,27,18.60
2017,05,23,11,28,18.60
2017,05,23,11,29,18.70
2017,05,23,11,30,18.80
2017,05,23,11,31,18.90
2017,05,23,11,32,18.90
2017,05,23,11,33,18.90
2017,05,23,11,34,18.80
2017,05,23,11,35,18.70
2017,05,23,11,36,18.60
2017,05,23,11,37,18.50
2017,05,23,11,38,18.50
2017,05,23,11,39,18.60
2017,05,23,11,40,18.70
2017,05,23,11,41,18.80
2017,05,23,11,42,18.90
2017,05,23,11,43,18.90
2017,05,23,11,44,19.00
2017,05,23,11,45,19.10
2017,05,23,11,46,19.10
2017,05,23,11,47,19.10
2017,05,23,11,48,19.10
2017,05,23,11,49,19.10
2017,05,23,11,50,19.10
2017,05,23,11,51,19.10
2017,05,23,11,52,19.20
2017,05,23,11,53,19.20
2017,05,23,11,54,19.30
2017,05,23,11,55,19.30
2017,05,23,11,56,19.30
2017,05,23,11,57,19.20
2017,05,23,11,58,19.10
2017,05,23,11,59,19.00
2017,05,23,12,00,19.00
2017,05,23,12,01,18.90
2017,05,23,12,02,18.90
2017,05,23,12,03,18.90
2017,05,23,12,04,18.90
2017,05,23,12,05,18.90
2017,05,23,12,06,18.90
2017,05,23,12,07,18.80
2017,05,23,12,08,18.80
2017,05,23,12,09,18.80
2017,05,23,12,10,18.70
2017,05,23,12,11,18.60
2017,05,23,12,12,18.60
2017,05,23,12,13,18.50
2017,05,23,12,14,18.40
2017,05,23,12,15,18.40
2017,05,23,12,16,18.40
2017,05,23,12,17,18.40
2017,05,23,12,18,18.40
2017,05,23,12,19,18.30
2017,05,23,12,20,18.30
2017,05,23,12,21,18.20
2017,05,23,12,22,18.20
2017,05,23,12,23,18.20
2017,05,23,12,24,18.10
2017,05,23,12,25,18.10
2017,05,23,12,26,18.20
2017,05,23,12,27,18.30
2017,05,23,12,28,18.40
2017,05,23,12,29,18.40
2017,05,23,12,30,18.50
2017,05,23,12,31,18.60
2017,05,23,12,32,18.60
2017,05,23,12,33,18.60
2017,05,23,12,34,18.70
2017,05,23,12,35,18.70
2017,05,23,12,36,18.80
2017,05,23,12,37,18.80
2017,05,23,12,38,18.80
2017,05,23,12,39,18.90
2017,05,23,12,40,19.00
2017,05,23,12,41,19.10
2017,05,23,12,42,19.20
2017,05,23,12,43,19.10
2017,05,23,12,44,19.00
2017,05,23,12,45,19.00
2017,05,23,12,46,19.00
2017,05,23,12,47,19.10
2017,05,23,12,48,19.20
2017,05,23,12,49,19.20
2017,05,23,12,50,19.30
2017,05,23,12,51,19.40
2017,05,23,12,52,19.40
2017,05,23,12,53,19.40
2017,05,23,12,54,19.50
2017,05,23,12,55,19.50
2017,05,23,12,56,19.60
2017,05,23,12,57,19.70
2017,05,23,12,58,19.60
2017,05,23,12,59,19.60
2017,05,23,13,00,19.60
2017,05,23,13,01,19.60
2017,05,23,13,02,19.60
2017,05,23,13,03,19.70
2017,05,23,13,04,19.60
2017,05,23,13,05,19.50
2017,05,23,13,06,19.60
2017,05,23,13,07,19.50
2017,05,23,13,08,19.40
2017,05,23,13,09,19.40
2017,05,23,13,10,19.50
2017,05,23,13,11,19.40
2017,05,23,13,12,19.30
2017,05,23,13,13,19.30
2017,05,23,13,14,19.40
2017,05,23,13,15,19.30
2017,05,23,13,16,19.30
2017,05,23,13,17,19.20
2017,05,23,13,18,19.20
2017,05,23,13,19,19.10
2017,05,23,13,20,19.10
2017,05,23,13,21,19.00
2017,05,23,13,22,18.90
2017,05,23,13,23,18.80
2017,05,23,13,24,18.80
2017,05,23,13,25,18.80
2017,05,23,13,26,18.80
2017,05,23,13,27,18.70
2017,05,23,13,28,18.70
2017,05,23,13,29,18.60
2017,05,23,13,30,18.60
2017,05,23,13,31,18.70
2017,05,23,13,32,18.60
2017,05,23,13,33,18.60
2017,05,23,13,34,18.70
2017,05,23,13,35,18.70
2017,05,23,13,36,18.70
2017,05,23,13,37,18.70
2017,05,23,13,38,18.70
2017,05,23,13,39,18.70
2017,05,23,13,40,18.70
2017,05,23,13,41,18.70
2017,05,23,13,42,18.70
2017,05,23,13,43,18.70
2017,05,23,13,44,18.70
2017,05,23,13,45,18.70
2017,05,23,13,46,18.60
2017,05,23,13,47,18.60
2017,05,23,13,48,18.50
2017,05,23,13,49,18.60
2017,05,23,13,50,18.60
2017,05,23,13,51,18.70
2017,05,23,13,52,18.70
2017,05,23,13,53,18.70
2017,05,23,13,54,18.70
2017,05,23,13,55,18.80
2017,05,23,13,56,18.80
2017,05,23,13,57,18.90
2017,05,23,13,58,18.90
2017,05,23,13,59,18.80
2017,05,23,14,00,18.80
2017,05,23,14,01,18.70
2017,05,23,14,02,18.70
2017,05,23,14,03,18.60
2017,05,23,14,04,18.50
2017,05,23,14,05,18.40
2017,05,23,14,06,18.40
2017,05,23,14,07,18.40
2017,05,23,14,08,18.40
2017,05,23,14,09,18.40
2017,05,23,14,10,18.40
2017,05,23,14,11,18.50
2017,05,23,14,12,18.50
2017,05,23,14,13,18.50
2017,05,23,14,14,18.50
2017,05,23,14,15,18.50
2017,05,23,14,16,18.50
2017,05,23,14,17,18.50
2017,05,23,14,18,18.50
2017,05,23,14,19,18.50
2017,05,23,14,20,18.40
2017,05,23,14,21,18.30
2017,05,23,14,22,18.20
2017,05,23,14,23,18.20
2017,05,23,14,24,18.20
2017,05,23,14,25,18.20
2017,05,23,14,26,18.20
2017,05,23,14,27,18.20
2017,05,23,14,28,18.20
2017,05,23,14,29,18.30
2017,05,23,14,30,18.30
2017,05,23,14,31,18.30
2017,05,23,14,32,18.30
2017,05,23,14,33,18.30
2017,05,23,14,34,18.40
2017,05,23,14,35,18.40
2017,05,23,14,36,18.40
2017,05,23,14,37,18.40
2017,05,23,14,38,18.40
2017,05,23,14,39,18.40
2017,05,23,14,40,18.40
2017,05,23,14,41,18.30
2017,05,23,14,42,18.30
2017,05,23,14,43,18.30
2017,05,23,14,44,18.10
2017,05,23,14,45,17.90
2017,05,23,14,46,17.80
2017,05,23,14,47,17.80
2017,05,23,14,48,17.80
2017,05,23,14,49,17.70
2017,05,23,14,50,17.60
2017,05,23,14,51,17.50
2017,05,23,14,52,17.50
2017,05,23,14,53,17.30
2017,05,23,14,54,17.20
2017,05,23,14,55,17.00
2017,05,23,14,56,17.00
2017,05,23,14,57,17.00
2017,05,23,14,58,17.00
2017,05,23,14,59,16.90
2017,05,23,15,00,16.60
2017,05,23,15,01,16.50
2017,05,23,15,02,16.40
2017,05,23,15,03,16.40
2017,05,23,15,04,16.30
2017,05,23,15,05,16.30
2017,05,23,15,06,16.30
2017,05,23,15,07,16.30
2017,05,23,15,08,16.30
2017,05,23,15,09,16.40
2017,05,23,15,10,16.50
2017,05,23,15,11,16.50
2017,05,23,15,12,16.60
2017,05,23,15,13,16.60
2017,05,23,15,14,16.60
2017,05,23,15,15,16.60
2017,05,23,15,16,16.60
2017,05,23,15,17,16.60
2017,05,23,15,18,16.60
2017,05,23,15,19,16.60
2017,05,23,15,20,16.60
2017,05,23,15,21,16.60
2017,05,23,15,22,16.60
2017,05,23,15,23,16.60
2017,05,23,15,24,16.70
2017,05,23,15,25,16.70
2017,05,23,15,26,16.60
2017,05,23,15,27,16.60
2017,05,23,15,28,16.60
2017,05,23,15,29,16.60
2017,05,23,15,30,16.60
2017,05,23,15,31,16.70
2017,05,23,15,32,16.70
2017,05,23,15,33,16.60
2017,05,23,15,34,16.60
2017,05,23,15,35,16.60
2017,05,23,15,36,16.50
2017,05,23,15,37,16.40
2017,05,23,15,38,16.30
2017,05,23,15,39,16.30
2017,05,23,15,40,16.30
2017,05,23,15,41,16.20
2017,05,23,15,42,16.20
2017,05,23,15,43,16.30
2017,05,23,15,44,16.30
2017,05,23,15,45,16.30
2017,05,23,15,46,16.30
2017,05,23,15,47,16.40
2017,05,23,15,48,16.50
2017,05,23,15,49,16.50
2017,05,23,15,50,16.60
2017,05,23,15,51,16.60
2017,05,23,15,52,16.60
2017,05,23,15,53,16.50
2017,05,23,15,54,16.40
2017,05,23,15,55,16.30
2017,05,23,15,56,16.10
2017,05,23,15,57,16.00
2017,05,23,15,58,15.90
2017,05,23,15,59,15.90
2017,05,23,16,00,15.80
2017,05,23,16,01,15.80
2017,05,23,16,02,15.70
2017,05,23,16,03,15.70
2017,05,23,16,04,15.70
2017,05,23,16,05,15.70
2017,05,23,16,06,15.60
2017,05,23,16,07,15.50
2017,05,23,16,08,15.40
2017,05,23,16,09,15.40
2017,05,23,16,10,15.40
2017,05,23,16,11,15.40
2017,05,23,16,12,15.40
2017,05,23,16,13,15.50
2017,05,23,16,14,15.50
2017,05,23,16,15,15.60
2017,05,23,16,16,15.70
2017,05,23,16,17,15.70
2017,05,23,16,18,15.70
2017,05,23,16,19,15.70
2017,05,23,16,20,15.60
2017,05,23,16,21,15.50
2017,05,23,16,22,15.40
2017,05,23,16,23,15.30
2017,05,23,16,24,15.30
2017,05,23,16,25,15.30
2017,05,23,16,26,15.30
2017,05,23,16,27,15.30
2017,05,23,16,28,15.30
2017,05,23,16,29,15.30
2017,05,23,16,30,15.30
2017,05,23,16,31,15.20
2017,05,23,16,32,15.20
2017,05,23,16,33,15.10
2017,05,23,16,34,15.10
2017,05,23,16,35,15.10
2017,05,23,16,36,15.10
2017,05,23,16,37,15.10
2017,05,23,16,38,15.10
2017,05,23,16,39,15.00
2017,05,23,16,40,14.90
2017,05,23,16,41,14.80
2017,05,23,16,42,14.70
2017,05,23,16,43,14.60
2017,05,23,16,44,14.50
2017,05,23,16,45,14.50
2017,05,23,16,46,14.50
2017,05,23,16,47,14.40
2017,05,23,16,48,14.40
2017,05,23,16,49,14.40
2017,05,23,16,50,14.40
2017,05,23,16,51,14.50
2017,05,23,16,52,14.50
2017,05,23,16,53,14.40
2017,05,23,16,54,14.40
2017,05,23,16,55,14.40
2017,05,23,16,56,14.40
2017,05,23,16,57,14.40
2017,05,23,16,58,14.40
2017,05,23,16,59,14.40
2017,05,23,17,00,14.40
2017,05,23,17,01,14.40
2017,05,23,17,02,14.40
2017,05,23,17,03,14.30
2017,05,23,17,04,14.30
2017,05,23,17,05,14.30
2017,05,23,17,06,14.20
2017,05,23,17,07,14.20
2017,05,23,17,08,14.10
2017,05,23,17,09,14.10
2017,05,23,17,10,14.00
2017,05,23,17,11,13.90
2017,05,23,17,12,13.90
2017,05,23,17,13,13.80
2017,05,23,17,14,13.80
2017,05,23,17,15,13.80
2017,05,23,17,16,13.80
2017,05,23,17,17,13.80
2017,05,23,17,18,13.80
2017,05,23,17,19,13.80